NOAA NWS Hourly Roundups by Site

Regional Weather Roundup for State College, PA

To Select Another Site Choose from List

Select Site:  

000
ASUS41 KCTP 192310
RWRCTP

REGIONAL WEATHER ROUNDUP
NATIONAL WEATHER SERVICE STATE COLLEGE PA
700 PM EDT MON OCT 19 2020

Note: "fair" indicates few or no clouds below 12,000 feet with no
significant weather and/or obstructions to visibility.

* = STATION THAT DOES NOT REPORT PRECIPITATION /E.G. RAIN...SNOW...ETC/
    THUNDER OR FOG.

PAZ002>004-007>009-013>016-020>023-029>032-200000-
WESTERN PENNSYLVANIA

CITY           SKY/WX    TMP DP  RH WIND       PRES   REMARKS
ERIE           CLOUDY    53  51  93 E6        30.13F FOG
MEADVILLE      LGT RAIN  52  50  93 VRB5      30.13F FOG
FRANKLIN       LGT RAIN  51  51 100 S7        30.16S FOG
NEW CASTLE     CLOUDY    54  53  97 VRB3      30.16S
BEAVER COUNTY  CLOUDY    56  52  89 SE6       30.15S
BUTLER         CLOUDY    53  52  96 CALM      30.17R
PITTSBURGH INT CLOUDY    55  52  89 SE3       30.15S
PITTSBURGH     CLOUDY    55  53  93 S3        30.16R
INDIANA*       CLOUDY    55  54  94 SE5       30.21S
LATROBE        MOCLDY    57  57 100 CALM      30.17S FOG
WASHINGTON CO* CLOUDY    56  55  97 CALM      30.18S
$$

PAZ004>006-010>012-017>019-024>028-033>037-041-042-045-046-049>053-200000-
CENTRAL PENNSYLVANIA

CITY           SKY/WX    TMP DP  RH WIND       PRES   REMARKS
BRADFORD       LGT RAIN  51  47  86 SE7       30.18R FOG
ST MARYS       NOT AVBL
DUBOIS         CLOUDY    51  49  92 SE6       30.18R
CLEARFIELD     CLOUDY    50  49  96 N5        30.21S FOG
JOHNSTOWN      CLOUDY    51  45  79 SE7       30.20R
SOMERSET       CLOUDY    52  45  76 CALM      30.20F
ALTOONA        LGT RAIN  52  49  89 CALM      30.23S
STATE COLLEGE  LGT RAIN  52  52 100 CALM      30.23F FOG
REEDSVILLE     FAIR      55  55 100 CALM      30.22F FOG
WELLSBORO      CLOUDY    52  50  93 S14       30.20S
WILLIAMSPORT   CLOUDY    57  54  89 E9        30.21F
SELINSGROVE    CLOUDY    56  55  97 NW3       30.23S FOG
FT INDIANTOWN  MOCLDY    60  57  90 CALM      30.23F
CAPITAL CITY   MOCLDY    63  56  78 S3        30.22F
HARRISBURG     MOCLDY    60  56  86 SE5       30.22F
YORK           PTCLDY    62  52  69 SE3       30.23F
$$

PAZ038>040-043-044-047-048-054-055-060>062-067>071-200000-
EASTERN PENNSYLVANIA

CITY           SKY/WX    TMP DP  RH WIND       PRES   REMARKS
TOWANDA        PTCLDY    57  57 100 CALM      30.23S
SCRANTON       LGT RAIN  60  53  77 CALM      30.24F
MOUNT POCONO   CLOUDY    55  50  83 SE6       30.27F
HAZLETON       CLOUDY    57  52  82 SE3       30.28S
LEHIGHTON      MOCLDY    59  55  88 CALM      30.26F
ALLENTOWN      CLOUDY    65  53  65 SE5       30.26F
QN CITY/ALNTWN CLOUDY    64  54  68 CALM      30.27F
QUAKERTOWN*    MOCLDY    63  55  77 CALM      30.28S
PERKASIE*        N/A     61  55  82 CALM      30.29S
DOYLESTOWN     MOCLDY    64  53  67 CALM      30.27S
READING        MOCLDY    64  54  69 S8        30.25S
LANCASTER      MOCLDY    63  54  72 SE9       30.25S
COATESVILLE    MOCLDY    61  54  77 SE5       30.29R
WEST CHESTER   MOCLDY    63  55  77 CALM      30.28S
POTTSTOWN      PTCLDY    61  55  81 CALM      30.28S
BLUE BELL      PTCLDY    62  54  75 SE3       30.28S
NORTH PHILA    MOCLDY    64  54  69 SE5       30.29S
PHILADELPHIA   MOCLDY    64  54  69 SE5       30.28S
$$



 

View Past Reports for State College, PA.

Products Courtesy of NOAA-NWS
NWS Information Parsing Script by Ken True at Saratoga Weather - Script by SE Lincoln Weather.